ANA598 RJOM-RJTT

Flight info

Callsign ANA598
Flight time 1h 5m
Altitude 35000
Route KRE V37 PADOC Y43 MENUR Y21 AKSEL
Aircraft B738/M-SDE2E3FGHIRWXY/LB1

Departure

Time 2026-04-21 11:32
Airport Matsuyama Airport (RJOM)

Arrival

Time 2026-04-21 12:37
Airport Tokyo Haneda International Airport (RJTT)
Time Latitude Longitude Altitude Speed Heading
2026-04-21 11:11 33.82876 132.70312 24 ft 0 kts 41°
2026-04-21 11:20 33.82876 132.70311 24 ft 1 kts 41°
2026-04-21 11:20 33.82857 132.70292 12 ft 4 kts 38°
2026-04-21 11:21 33.82836 132.70272 27 ft 4 kts 36°
2026-04-21 11:21 33.82813 132.70254 28 ft 4 kts 32°
2026-04-21 11:21 33.82790 132.70239 26 ft 4 kts 22°
2026-04-21 11:21 33.82765 132.70231 30 ft 4 kts 350°
2026-04-21 11:22 33.82752 132.70237 29 ft 1 kts 311°
2026-04-21 11:22 33.82750 132.70239 29 ft 0 kts 311°
2026-04-21 11:25 33.82751 132.70239 24 ft 1 kts 311°
2026-04-21 11:25 33.82762 132.70223 24 ft 4 kts 312°
2026-04-21 11:26 33.82781 132.70195 24 ft 4 kts 307°
2026-04-21 11:26 33.82802 132.70162 27 ft 5 kts 309°
2026-04-21 11:26 33.82825 132.70128 26 ft 5 kts 309°
2026-04-21 11:26 33.82848 132.70094 26 ft 5 kts 312°
2026-04-21 11:27 33.82874 132.70060 26 ft 6 kts 313°
2026-04-21 11:27 33.82911 132.70009 24 ft 11 kts 310°
2026-04-21 11:27 33.82974 132.69919 25 ft 17 kts 310°
2026-04-21 11:27 33.83036 132.69832 26 ft 11 kts 310°
2026-04-21 11:28 33.83086 132.69762 25 ft 11 kts 310°
2026-04-21 11:28 33.83142 132.69682 28 ft 14 kts 310°
2026-04-21 11:28 33.83207 132.69591 26 ft 14 kts 310°
2026-04-21 11:28 33.83272 132.69503 27 ft 14 kts 311°
2026-04-21 11:29 33.83332 132.69418 25 ft 13 kts 310°
2026-04-21 11:29 33.83390 132.69336 25 ft 13 kts 311°
2026-04-21 11:29 33.83448 132.69257 27 ft 12 kts 310°
2026-04-21 11:29 33.83504 132.69177 26 ft 13 kts 310°
2026-04-21 11:30 33.83549 132.69075 24 ft 14 kts 265°
2026-04-21 11:30 33.83491 132.68989 23 ft 14 kts 217°
2026-04-21 11:30 33.83409 132.69004 24 ft 13 kts 131°
2026-04-21 11:30 33.83372 132.69057 22 ft 0 kts 130°
2026-04-21 11:31 33.83363 132.69069 22 ft 12 kts 130°
2026-04-21 11:31 33.83136 132.69387 24 ft 88 kts 131°
2026-04-21 11:31 33.82583 132.70159 26 ft 153 kts 130°
2026-04-21 11:32 33.81842 132.71117 690 ft 153 kts 135°
2026-04-21 11:32 33.81091 132.72098 1293 ft 169 kts 131°
2026-04-21 11:32 33.80185 132.72980 2049 ft 174 kts 162°
2026-04-21 11:32 33.78972 132.72896 2711 ft 179 kts 194°
2026-04-21 11:33 33.77745 132.72514 3389 ft 188 kts 193°
2026-04-21 11:33 33.76386 132.72099 3694 ft 216 kts 193°
2026-04-21 11:33 33.74843 132.71639 3919 ft 240 kts 193°
2026-04-21 11:33 33.73140 132.71144 4175 ft 264 kts 192°
2026-04-21 11:34 33.71306 132.70621 4844 ft 275 kts 193°
2026-04-21 11:34 33.69445 132.70092 5737 ft 275 kts 193°
2026-04-21 11:34 33.67563 132.69894 6569 ft 280 kts 171°
2026-04-21 11:34 33.65777 132.70814 7377 ft 283 kts 146°
2026-04-21 11:35 33.64192 132.72247 8146 ft 288 kts 143°
2026-04-21 11:35 33.62603 132.73744 8879 ft 294 kts 143°
2026-04-21 11:35 33.60974 132.75261 9641 ft 298 kts 144°
2026-04-21 11:35 33.59318 132.76787 10338 ft 305 kts 144°
2026-04-21 11:36 33.57810 132.78697 10533 ft 332 kts 119°
2026-04-21 11:36 33.57154 132.81416 10728 ft 354 kts 94°
2026-04-21 11:36 33.57029 132.84458 10910 ft 375 kts 91°
2026-04-21 11:36 33.56968 132.87652 11264 ft 389 kts 90°
2026-04-21 11:37 33.56910 132.90880 11821 ft 397 kts 90°
2026-04-21 11:37 33.56838 132.94210 12429 ft 402 kts 91°
2026-04-21 11:37 33.56742 132.97595 13000 ft 408 kts 91°
2026-04-21 11:37 33.56633 133.01005 13604 ft 413 kts 91°
2026-04-21 11:38 33.56514 133.04481 14126 ft 420 kts 91°
2026-04-21 11:38 33.56392 133.07986 14641 ft 423 kts 92°
2026-04-21 11:38 33.56270 133.11529 15168 ft 427 kts 92°
2026-04-21 11:38 33.56145 133.15107 15687 ft 432 kts 92°
2026-04-21 11:39 33.56017 133.18722 16051 ft 433 kts 92°
2026-04-21 11:39 33.55891 133.22273 16085 ft 433 kts 93°
2026-04-21 11:39 33.55762 133.25891 16081 ft 437 kts 92°
2026-04-21 11:39 33.55632 133.29526 16081 ft 437 kts 93°
2026-04-21 11:40 33.55499 133.33161 16082 ft 436 kts 93°
2026-04-21 11:40 33.55367 133.36787 16067 ft 435 kts 93°
2026-04-21 11:40 33.55236 133.40379 16065 ft 435 kts 93°
2026-04-21 11:40 33.55102 133.44035 16065 ft 435 kts 93°
2026-04-21 11:41 33.54968 133.47681 16205 ft 442 kts 93°
2026-04-21 11:41 33.54831 133.51357 16740 ft 444 kts 93°
2026-04-21 11:41 33.54694 133.55025 17334 ft 446 kts 94°
2026-04-21 11:41 33.54553 133.58757 17840 ft 450 kts 94°
2026-04-21 11:42 33.54410 133.62519 18288 ft 455 kts 94°
2026-04-21 11:42 33.54264 133.66325 18699 ft 458 kts 94°
2026-04-21 11:42 33.54114 133.70144 19127 ft 461 kts 94°
2026-04-21 11:42 33.53952 133.74010 19532 ft 465 kts 94°
2026-04-21 11:43 33.53784 133.77890 19918 ft 469 kts 94°
2026-04-21 11:43 33.53611 133.81814 20307 ft 473 kts 94°
2026-04-21 11:43 33.53438 133.85759 20704 ft 476 kts 94°
2026-04-21 11:43 33.53266 133.89677 21094 ft 478 kts 94°
2026-04-21 11:44 33.53090 133.93667 21413 ft 483 kts 94°
2026-04-21 11:44 33.52909 133.97719 21691 ft 489 kts 94°
2026-04-21 11:44 33.52727 134.01809 22092 ft 492 kts 93°
2026-04-21 11:44 33.52543 134.05897 22497 ft 494 kts 94°
2026-04-21 11:45 33.52356 134.10027 22865 ft 497 kts 93°
2026-04-21 11:45 33.52167 134.14183 23130 ft 501 kts 93°
2026-04-21 11:45 33.51975 134.18353 23473 ft 504 kts 93°
2026-04-21 11:45 33.51774 134.22499 23756 ft 507 kts 93°
2026-04-21 11:46 33.51558 134.26729 24035 ft 508 kts 94°
2026-04-21 11:46 33.51340 134.30962 24320 ft 510 kts 94°
2026-04-21 11:46 33.51121 134.35216 24590 ft 512 kts 94°
2026-04-21 11:46 33.50908 134.39489 24841 ft 515 kts 93°
2026-04-21 11:47 33.50727 134.43785 25059 ft 518 kts 92°
2026-04-21 11:47 33.50567 134.48057 25776 ft 508 kts 92°
2026-04-21 11:47 33.50410 134.52242 26561 ft 497 kts 92°
2026-04-21 11:47 33.50248 134.56345 27258 ft 491 kts 92°
2026-04-21 11:48 33.50083 134.60374 27640 ft 493 kts 92°
2026-04-21 11:48 33.49906 134.64493 27911 ft 496 kts 92°
2026-04-21 11:48 33.49721 134.68633 28228 ft 499 kts 92°
2026-04-21 11:48 33.49533 134.72791 28506 ft 503 kts 92°
2026-04-21 11:49 33.49343 134.76988 28795 ft 505 kts 92°
2026-04-21 11:49 33.49151 134.81205 29093 ft 508 kts 92°
2026-04-21 11:49 33.48958 134.85440 29387 ft 511 kts 92°
2026-04-21 11:49 33.48763 134.89702 29571 ft 517 kts 92°
2026-04-21 11:50 33.48567 134.93975 29700 ft 523 kts 92°
2026-04-21 11:50 33.48365 134.98334 29989 ft 525 kts 92°
2026-04-21 11:50 33.48163 135.02701 30318 ft 525 kts 92°
2026-04-21 11:50 33.47967 135.07071 30627 ft 525 kts 92°
2026-04-21 11:51 33.47774 135.11450 30854 ft 527 kts 92°
2026-04-21 11:51 33.47580 135.15824 31225 ft 524 kts 92°
2026-04-21 11:51 33.47384 135.20188 31505 ft 526 kts 92°
2026-04-21 11:51 33.47185 135.24573 31645 ft 530 kts 93°
2026-04-21 11:52 33.46982 135.28995 31801 ft 533 kts 93°
2026-04-21 11:52 33.46779 135.33377 32012 ft 535 kts 93°
2026-04-21 11:52 33.46582 135.37826 32248 ft 536 kts 92°
2026-04-21 11:52 33.46396 135.42279 32433 ft 538 kts 92°
2026-04-21 11:53 33.46212 135.46780 32586 ft 541 kts 92°
2026-04-21 11:53 33.46026 135.51274 32848 ft 540 kts 93°
2026-04-21 11:53 33.45838 135.55745 33322 ft 535 kts 93°
2026-04-21 11:53 33.45648 135.60173 33701 ft 533 kts 93°
2026-04-21 11:54 33.45455 135.64612 33924 ft 534 kts 93°
2026-04-21 11:54 33.45260 135.69062 34103 ft 535 kts 93°
2026-04-21 11:54 33.45066 135.73456 34302 ft 536 kts 93°
2026-04-21 11:54 33.44946 135.77895 34544 ft 535 kts 88°
2026-04-21 11:55 33.45253 135.82337 34773 ft 533 kts 78°
2026-04-21 11:55 33.46039 135.86650 34997 ft 530 kts 73°
2026-04-21 11:55 33.47829 135.95257 35066 ft 536 kts 73°
2026-04-21 11:56 33.49609 136.03969 35058 ft 537 kts 73°
2026-04-21 11:56 33.51300 136.12608 35058 ft 536 kts 74°
2026-04-21 11:57 33.52971 136.21286 35072 ft 534 kts 74°
2026-04-21 11:57 33.54635 136.29945 35065 ft 533 kts 74°
2026-04-21 11:58 33.56297 136.38603 35079 ft 532 kts 73°
2026-04-21 11:58 33.57951 136.47249 35070 ft 532 kts 73°
2026-04-21 11:59 33.59587 136.55839 35068 ft 532 kts 74°
2026-04-21 11:59 33.61231 136.64508 35070 ft 534 kts 73°
2026-04-21 12:00 33.62874 136.73199 35077 ft 535 kts 73°
2026-04-21 12:00 33.64514 136.81868 35067 ft 537 kts 73°
2026-04-21 12:01 33.66179 136.90616 35062 ft 538 kts 73°
2026-04-21 12:01 33.67841 136.99391 35074 ft 540 kts 73°
2026-04-21 12:02 33.70330 137.12617 35061 ft 542 kts 73°
2026-04-21 12:03 33.71957 137.21413 35054 ft 543 kts 74°
2026-04-21 12:03 33.73581 137.30281 35050 ft 544 kts 74°
2026-04-21 12:04 33.75202 137.39155 35050 ft 544 kts 74°
2026-04-21 12:04 33.76819 137.48032 35032 ft 544 kts 74°
2026-04-21 12:05 33.78419 137.56851 35015 ft 543 kts 74°
2026-04-21 12:05 33.80023 137.65730 35027 ft 543 kts 74°
2026-04-21 12:06 33.81617 137.74568 35014 ft 539 kts 74°
2026-04-21 12:06 33.83205 137.83394 35036 ft 542 kts 74°
2026-04-21 12:07 33.84788 137.92227 35030 ft 545 kts 74°
2026-04-21 12:07 33.86381 138.01168 35021 ft 548 kts 74°
2026-04-21 12:08 33.87973 138.10148 35021 ft 549 kts 75°
2026-04-21 12:08 33.89560 138.19134 35013 ft 549 kts 75°
2026-04-21 12:09 33.91337 138.27976 35007 ft 543 kts 66°
2026-04-21 12:09 33.94554 138.36045 35020 ft 531 kts 54°
2026-04-21 12:09 33.96354 138.39935 34778 ft 534 kts 54°
2026-04-21 12:10 33.98170 138.43860 34193 ft 537 kts 54°
2026-04-21 12:10 33.99970 138.47803 33518 ft 537 kts 55°
2026-04-21 12:10 34.01750 138.51759 32809 ft 537 kts 56°
2026-04-21 12:10 34.03518 138.55728 32108 ft 537 kts 56°
2026-04-21 12:11 34.05274 138.59695 31409 ft 538 kts 56°
2026-04-21 12:11 34.07013 138.63632 30706 ft 538 kts 56°
2026-04-21 12:11 34.08773 138.67618 29914 ft 539 kts 56°
2026-04-21 12:11 34.10539 138.71618 29028 ft 540 kts 57°
2026-04-21 12:12 34.12302 138.75614 28169 ft 540 kts 57°
2026-04-21 12:12 34.14064 138.79609 27307 ft 539 kts 57°
2026-04-21 12:12 34.15823 138.83602 26434 ft 539 kts 57°
2026-04-21 12:12 34.17588 138.87612 25526 ft 540 kts 57°
2026-04-21 12:13 34.19348 138.91615 24742 ft 539 kts 57°
2026-04-21 12:13 34.21095 138.95599 24032 ft 535 kts 58°
2026-04-21 12:13 34.22816 138.99560 23315 ft 530 kts 58°
2026-04-21 12:13 34.24494 139.03447 22558 ft 526 kts 58°
2026-04-21 12:14 34.26173 139.07341 21859 ft 520 kts 58°
2026-04-21 12:14 34.27834 139.11193 21194 ft 514 kts 58°
2026-04-21 12:14 34.29404 139.15037 20688 ft 507 kts 61°
2026-04-21 12:14 34.30794 139.18909 20282 ft 498 kts 64°
2026-04-21 12:15 34.32087 139.22757 19876 ft 489 kts 64°
2026-04-21 12:15 34.33352 139.26576 19500 ft 492 kts 64°
2026-04-21 12:15 34.34623 139.30377 19110 ft 495 kts 64°
2026-04-21 12:15 34.35926 139.34229 18680 ft 491 kts 64°
2026-04-21 12:16 34.37221 139.38019 18287 ft 485 kts 64°
2026-04-21 12:16 34.38512 139.41777 17832 ft 480 kts 64°
2026-04-21 12:16 34.39789 139.45486 17416 ft 475 kts 64°
2026-04-21 12:16 34.41053 139.49159 17023 ft 470 kts 64°
2026-04-21 12:17 34.42302 139.52792 16644 ft 465 kts 64°
2026-04-21 12:17 34.43537 139.56396 16262 ft 461 kts 64°
2026-04-21 12:17 34.44760 139.59965 15885 ft 458 kts 64°
2026-04-21 12:17 34.45976 139.63521 15511 ft 454 kts 64°
2026-04-21 12:18 34.47163 139.66969 15145 ft 446 kts 62°
2026-04-21 12:18 34.48678 139.70170 14765 ft 430 kts 48°
2026-04-21 12:18 34.50640 139.72803 14430 ft 413 kts 37°
2026-04-21 12:18 34.52850 139.74895 14101 ft 392 kts 26°
2026-04-21 12:19 34.55139 139.76525 13774 ft 373 kts 25°
2026-04-21 12:19 34.57345 139.78057 13464 ft 355 kts 21°
2026-04-21 12:19 34.59576 139.79053 13182 ft 330 kts
2026-04-21 12:19 34.61780 139.79406 12929 ft 312 kts 356°
2026-04-21 12:20 34.63903 139.79479 12697 ft 298 kts 355°
2026-04-21 12:20 34.65909 139.79537 12447 ft 287 kts 355°
2026-04-21 12:20 34.67867 139.79593 12217 ft 277 kts 356°
2026-04-21 12:20 34.69781 139.79648 11999 ft 273 kts 356°
2026-04-21 12:21 34.71666 139.79704 11795 ft 269 kts 356°
2026-04-21 12:21 34.73531 139.79761 11574 ft 267 kts 356°
2026-04-21 12:21 34.75381 139.79820 11357 ft 265 kts 356°
2026-04-21 12:21 34.77215 139.79879 11139 ft 264 kts 357°
2026-04-21 12:22 34.79049 139.79939 10931 ft 262 kts 357°
2026-04-21 12:22 34.80843 139.79999 10729 ft 261 kts 358°
2026-04-21 12:22 34.82657 139.80060 10511 ft 261 kts 358°
2026-04-21 12:22 34.84467 139.80121 10296 ft 260 kts 358°
2026-04-21 12:23 34.86276 139.80182 10094 ft 260 kts 358°
2026-04-21 12:23 34.88083 139.80244 9872 ft 260 kts 358°
2026-04-21 12:23 34.89886 139.80306 9630 ft 259 kts 358°
2026-04-21 12:23 34.91689 139.80368 9417 ft 259 kts 358°
2026-04-21 12:24 34.93486 139.80430 9197 ft 258 kts 358°
2026-04-21 12:24 34.95257 139.80491 8985 ft 258 kts 359°
2026-04-21 12:24 34.97047 139.80552 8775 ft 257 kts 359°
2026-04-21 12:24 34.98834 139.80614 8561 ft 257 kts 359°
2026-04-21 12:25 35.00615 139.80676 8354 ft 256 kts 359°
2026-04-21 12:25 35.02393 139.80737 8145 ft 255 kts 359°
2026-04-21 12:25 35.04167 139.80798 7938 ft 255 kts 359°
2026-04-21 12:25 35.05938 139.80859 7730 ft 254 kts 359°
2026-04-21 12:26 35.07704 139.80921 7505 ft 254 kts 360°
2026-04-21 12:26 35.09430 139.80981 7424 ft 241 kts 359°
2026-04-21 12:26 35.11046 139.81039 7341 ft 224 kts 359°
2026-04-21 12:26 35.12528 139.81091 7233 ft 209 kts 359°
2026-04-21 12:27 35.13939 139.81140 7104 ft 198 kts 359°
2026-04-21 12:27 35.15296 139.81187 6747 ft 194 kts 358°
2026-04-21 12:27 35.16640 139.81232 6330 ft 193 kts 358°
2026-04-21 12:27 35.17980 139.81278 5879 ft 193 kts 360°
2026-04-21 12:28 35.19289 139.81325 5615 ft 184 kts 359°
2026-04-21 12:28 35.20557 139.81350 5409 ft 181 kts 354°
2026-04-21 12:28 35.21780 139.81011 5272 ft 182 kts 344°
2026-04-21 12:28 35.22999 139.80605 5116 ft 186 kts 345°
2026-04-21 12:29 35.24243 139.80200 4948 ft 184 kts 345°
2026-04-21 12:29 35.25469 139.79805 4790 ft 181 kts 346°
2026-04-21 12:29 35.26684 139.79416 4613 ft 179 kts 345°
2026-04-21 12:29 35.27884 139.79033 4451 ft 177 kts 346°
2026-04-21 12:30 35.29069 139.78656 4304 ft 175 kts 345°
2026-04-21 12:30 35.30237 139.78284 4161 ft 173 kts 344°
2026-04-21 12:30 35.31415 139.78018 3989 ft 174 kts
2026-04-21 12:30 35.32523 139.78572 3849 ft 177 kts 27°
2026-04-21 12:31 35.33569 139.79372 3680 ft 178 kts 26°
2026-04-21 12:31 35.34617 139.80179 3512 ft 178 kts 26°
2026-04-21 12:31 35.35666 139.80989 3334 ft 178 kts 26°
2026-04-21 12:31 35.36701 139.81791 3143 ft 173 kts 26°
2026-04-21 12:32 35.37700 139.82566 2954 ft 167 kts 26°
2026-04-21 12:32 35.38673 139.83321 2804 ft 165 kts 26°
2026-04-21 12:32 35.39649 139.84076 2654 ft 167 kts 26°
2026-04-21 12:32 35.40633 139.84835 2491 ft 167 kts 24°
2026-04-21 12:33 35.41701 139.85151 2337 ft 160 kts 357°
2026-04-21 12:33 35.42818 139.85127 2182 ft 162 kts 359°
2026-04-21 12:33 35.43942 139.85114 2008 ft 157 kts 354°
2026-04-21 12:33 35.44919 139.84664 1861 ft 146 kts 337°
2026-04-21 12:34 35.45819 139.84104 1747 ft 142 kts 336°
2026-04-21 12:34 35.46706 139.83501 1588 ft 147 kts 334°
2026-04-21 12:34 35.47586 139.82880 1394 ft 144 kts 334°
2026-04-21 12:34 35.48446 139.82269 1209 ft 145 kts 333°
2026-04-21 12:35 35.49321 139.81645 1025 ft 146 kts 333°
2026-04-21 12:35 35.50186 139.81028 864 ft 145 kts 332°
2026-04-21 12:35 35.51073 139.80394 652 ft 150 kts 332°
2026-04-21 12:35 35.52012 139.79736 471 ft 158 kts 332°
2026-04-21 12:36 35.52959 139.79064 243 ft 156 kts 334°
2026-04-21 12:36 35.53902 139.78396 35 ft 157 kts 333°
2026-04-21 12:36 35.54755 139.77788 21 ft 116 kts 330°
2026-04-21 12:36 35.55270 139.77426 22 ft 50 kts 332°
2026-04-21 12:37 35.55511 139.77356 20 ft 33 kts 358°
2026-04-21 12:37 35.55676 139.77353 20 ft 14 kts 359°
2026-04-21 12:37 35.55764 139.77327 21 ft 13 kts 335°
2026-04-21 12:37 35.55846 139.77346 21 ft 13 kts 46°
2026-04-21 12:38 35.55892 139.77436 22 ft 12 kts 57°
2026-04-21 12:38 35.55935 139.77526 23 ft 12 kts 60°
2026-04-21 12:38 35.55977 139.77615 22 ft 12 kts 60°
2026-04-21 12:38 35.56016 139.77701 26 ft 11 kts 59°
2026-04-21 12:39 35.56056 139.77785 26 ft 11 kts 60°
2026-04-21 12:39 35.56094 139.77864 24 ft 11 kts 59°
2026-04-21 12:39 35.56132 139.77943 26 ft 11 kts 59°
2026-04-21 12:39 35.56168 139.78020 25 ft 10 kts 60°
2026-04-21 12:40 35.56207 139.78101 29 ft 13 kts 60°
2026-04-21 12:40 35.56257 139.78207 25 ft 15 kts 60°
2026-04-21 12:40 35.56306 139.78313 27 ft 14 kts 60°
2026-04-21 12:40 35.56338 139.78420 42 ft 13 kts 102°
2026-04-21 12:41 35.56275 139.78495 26 ft 13 kts 150°
2026-04-21 12:41 35.56199 139.78550 23 ft 13 kts 150°
2026-04-21 12:41 35.56125 139.78604 22 ft 12 kts 149°
2026-04-21 12:41 35.56054 139.78656 22 ft 12 kts 148°
2026-04-21 12:42 35.55984 139.78709 22 ft 12 kts 148°
2026-04-21 12:42 35.55915 139.78756 22 ft 11 kts 154°
2026-04-21 12:42 35.55846 139.78801 24 ft 11 kts 150°
2026-04-21 12:42 35.55779 139.78849 25 ft 12 kts 149°
2026-04-21 12:43 35.55702 139.78903 27 ft 13 kts 150°
2026-04-21 12:43 35.55621 139.78960 25 ft 14 kts 149°
2026-04-21 12:43 35.55530 139.79025 27 ft 16 kts 151°
2026-04-21 12:43 35.55430 139.79006 27 ft 17 kts 243°
2026-04-21 12:44 35.55339 139.78940 26 ft 18 kts 158°
2026-04-21 12:44 35.55227 139.79016 26 ft 19 kts 150°
2026-04-21 12:44 35.55133 139.79082 27 ft 14 kts 150°
2026-04-21 12:44 35.55096 139.79149 27 ft 10 kts 68°
2026-04-21 12:45 35.55116 139.79197 32 ft 5 kts 58°
2026-04-21 12:45 35.55118 139.79200 32 ft 0 kts 58°